Orbital Elements at Epoch 2459000.5 (2020-May-31.0) TDB
Reference: JPL 33 (heliocentric ecliptic J2000)
Element | Value | Uncertainty (1-sigma) | Units |
e | .1410325569074064 | 3.585e-08 | |
a | 3.219137843458081 | 1.6674e-08 | au |
q | 2.765134602357793 | 1.173e-07 | au |
i | 1.38550262469664 | 3.6292e-06 | deg |
node | 65.44790536519352 | 0.00018565 | deg |
peri | 335.1239456995213 | 0.00018622 | deg |
M | 64.45885407780088 | 1.5235e-05 | deg |
tp | 2458622.764443657892 (2019-May-19.26444366) | 8.8316e-05 | TDB |
period | 2109.637259747547 5.78 | 1.6391e-05 4.488e-08 | d yr |
n | .1706454502244997 | 1.3258e-09 | deg/d |
Q | 3.673141084558368 | 1.9025e-08 | au |
|
| | Orbit Determination Parameters
Additional Information
|